Window Rock, AZ

9:03 PM MDT on March 27, 2017 (GMT -0600)
Window Rock

Weather History for KRQE - August, 2013

Change the Weather History Date:

Tuesday, August 6, 2013

  Actual Average Record
Temperature  
Mean Temperature 65 °F -  
Max Temperature 75 °F 83 °F 93 °F (1989)
Min Temperature 55 °F 53 °F 43 °F (1976)
Growing Degree Days 15 (Base 50)    
Moisture  
Dew Point 55 °F    
Average Humidity 79    
Maximum Humidity 94    
Minimum Humidity 42    
Precipitation  
Precipitation 0.38 in - - ()
Sea Level Pressure  
Sea Level Pressure 29.99 in    
Wind  
Wind Speed 4 mph (NW)    
Max Wind Speed 13 mph    
Max Gust Speed -    
Visibility 8 miles    
Events Rain    
Averages and records for this station are not official NWS values.
T = Trace of Precipitation, MM = Missing Value Source: NWS Daily Summary

Daily Weather History Graph

Daily Weather History Graph

Search for Another Location

Airport or City:

Trip Planner

Search our weather history database for the weather conditions in past years. The results will help you decide how hot, cold, wet, or windy it might be!

Date:

Astronomy

Aug. 06, 2013 Rise Set
Actual Time 6:28 AM MDT 8:15 PM MDT
Civil Twilight 6:00 AM MDT 8:42 PM MDT
Nautical Twilight 5:27 AM MDT 9:16 PM MDT
Astronomical Twilight 4:51 AM MDT 9:51 PM MDT
Moon 6:20 AM MDT (8/6) 7:55 PM MDT (8/6)
Length of Visible Light 14h 42m
Length of Day
13h 46m
Waning Crescent, 0% of the Moon is Illuminated
Aug 6
Waning Crescent
Aug 6
New
Aug 14
First Quarter
Aug 20
Full
Aug 28
Last Quarter

Hourly Weather History & Observations

Time (MDT) Temp. Dew Point Humidity Pressure Visibility Wind Dir Wind Speed Gust Speed Precip Events Conditions
12:53 AM 57.9 °F 55.0 °F 90% 30.00 in 7.0 mi Calm Calm - 0.13 in Rain Light Rain
1:53 AM 57.9 °F 55.0 °F 90% 29.94 in 10.0 mi North 5.8 mph - 0.02 in Rain Light Rain
2:53 AM 57.9 °F 54.0 °F 87% 29.90 in 10.0 mi North 11.5 mph - 0.00 in   Partly Cloudy
3:53 AM 57.0 °F 53.1 °F 87% 29.89 in 10.0 mi North 10.4 mph - N/A   Clear
4:53 AM 55.9 °F 53.1 °F 90% 29.89 in 10.0 mi Calm Calm - N/A   Clear
5:53 AM 55.0 °F 53.1 °F 93% 29.88 in 10.0 mi Calm Calm - N/A   Clear
7:53 AM 57.9 °F 53.1 °F 84% 29.94 in 10.0 mi Calm Calm - N/A   Overcast
8:53 AM 61.0 °F 55.0 °F 81% 29.95 in 10.0 mi Calm Calm - N/A   Mostly Cloudy
9:53 AM 62.1 °F 54.0 °F 75% 29.99 in 10.0 mi WSW 3.5 mph - N/A   Overcast
10:53 AM 63.0 °F 54.0 °F 72% 30.03 in 10.0 mi WSW 5.8 mph - N/A   Overcast
11:53 AM 69.1 °F 55.0 °F 61% 29.99 in 10.0 mi North 6.9 mph - 0.00 in   Scattered Clouds
12:53 PM 71.1 °F 52.0 °F 51% 29.96 in 10.0 mi North 6.9 mph - N/A   Mostly Cloudy
1:53 PM 73.0 °F 52.0 °F 48% 29.93 in 10.0 mi Variable 5.8 mph - N/A   Partly Cloudy
2:53 PM 75.9 °F 51.1 °F 42% 29.90 in 10.0 mi Variable 4.6 mph - N/A   Clear
3:53 PM 72.0 °F 52.0 °F 49% 29.89 in 10.0 mi NW 12.7 mph - N/A   Scattered Clouds
4:28 PM 62.6 °F 57.2 °F 82% 30.24 in 1.8 mi WSW 9.2 mph - 0.02 in Rain Rain
4:38 PM 62.6 °F 57.2 °F 82% 30.24 in 3.0 mi WNW 3.5 mph - 0.06 in Rain Light Rain
4:53 PM 64.0 °F 57.0 °F 78% 29.96 in 10.0 mi NW 6.9 mph - 0.06 in   Mostly Cloudy
5:53 PM 64.0 °F 53.1 °F 67% 29.95 in 10.0 mi Calm Calm - 0.00 in   Overcast
6:53 PM 57.9 °F 55.9 °F 93% 30.00 in 4.0 mi SW 5.8 mph - 0.03 in Rain Rain
7:06 PM 57.2 °F 55.4 °F 94% 30.24 in 2.5 mi Calm Calm - 0.03 in Rain Rain
7:19 PM 59.0 °F 55.4 °F 88% 30.24 in 4.0 mi Calm Calm - 0.05 in Rain Light Rain
7:53 PM 59.0 °F 55.9 °F 90% 29.98 in 10.0 mi Calm Calm - 0.07 in   Overcast
8:53 PM 59.0 °F 55.0 °F 87% 29.98 in 3.0 mi Calm Calm - 0.02 in Rain Rain
9:53 PM 59.0 °F 57.0 °F 93% 29.97 in 10.0 mi Calm Calm - 0.05 in Rain Light Rain
10:53 PM 59.0 °F 57.0 °F 93% 29.97 in 10.0 mi Calm Calm - 0.00 in   Overcast
11:53 PM 59.0 °F 57.0 °F 93% 29.95 in 10.0 mi Calm Calm - N/A   Mostly Cloudy